This demonstration page uses our WeatherBlox Daily Observations layout. Learn more.

39.29038, -76.61219

Hourly Observations for October 25, 2015

Temp ( °F °C ) Dew Point ( °F °C ) Humidity (%) Winds ( mph kmh ) Pressure ( in mb ) Visibility ( mi km ) Precip ( " mm )
12:54 am 00:54 undefined 59 15 52 11.1 78 78 undefined N/A 30.15 1021 N/A 0 0
1:54 am 01:54 undefined 58 14.4 53 11.7 84 84 undefined N/A 30.14 1021 N/A 0 0
2:54 am 02:54 undefined 58 14.4 53 11.7 84 84 undefined N/A 30.12 1020 N/A 0 0
3:54 am 03:54 undefined 58 14.4 53 11.7 84 84 undefined N/A 30.09 1019 N/A 0 0
4:54 am 04:54 undefined 57 13.9 53 11.7 87 87 undefined N/A 30.07 1018 N/A 0 0
5:54 am 05:54 undefined 57 13.9 53 11.7 87 87 undefined N/A 30.07 1018 N/A 0 0
6:54 am 06:54 undefined 57 13.9 53 11.7 87 87 undefined N/A 30.07 1018 N/A 0 0
7:54 am 07:54 undefined 58 14.4 53 11.7 84 84 undefined N/A 30.08 1019 N/A 0 0
8:54 am 08:54 undefined 58 14.4 54 12.2 87 87 undefined N/A 30.09 1019 N/A 0 0
9:54 am 09:54 undefined 59 15 54 12.2 83 83 undefined N/A 30.11 1020 N/A 0 0
10:54 am 10:54 undefined 61 16.1 54 12.2 78 78 undefined N/A 30.11 1020 N/A 0 0
11:54 am 11:54 undefined 63 17.2 55 12.8 76 76 undefined N/A 30.11 1020 N/A 0 0
12:54 pm 12:54 undefined 69 20.6 54 12.2 59 59 undefined N/A 30.09 1019 N/A 0 0
1:54 pm 13:54 undefined 71 21.7 51 10.6 49 49 undefined N/A 30.08 1019 N/A 0 0
2:54 pm 14:54 undefined 70 21.1 49 9.4 47 47 undefined N/A 30.09 1019 N/A 0 0
3:54 pm 15:54 undefined 70 21.1 50 10 49 49 undefined N/A 30.09 1019 N/A 0 0
4:54 pm 16:54 undefined 66 18.9 49 9.4 54 54 undefined N/A 30.12 1020 N/A 0 0
5:54 pm 17:54 undefined 65 18.3 46 7.8 51 51 undefined N/A 30.14 1021 N/A 0 0
6:54 pm 18:54 undefined 62 16.7 44 6.7 52 52 undefined N/A 30.18 1022 N/A 0 0
7:54 pm 19:54 undefined 62 16.7 42 5.6 48 48 undefined N/A 30.22 1024 N/A 0 0
8:54 pm 20:54 undefined 60 15.6 41 5 50 50 undefined N/A 30.24 1024 N/A 0 0
9:54 pm 21:54 undefined 59 15 40 4.4 49 49 undefined N/A 30.27 1025 N/A 0 0
10:54 pm 22:54 undefined 57 13.9 40 4.4 53 53 undefined N/A 30.29 1026 N/A 0 0
11:54 pm 23:54 undefined 56 13.3 40 4.4 55 55 undefined N/A 30.31 1026 N/A 0 0

Powered by AerisWeather